Home > Weather > Karlsruhe > Past weeks

Flag for Germany Weather for the Past 2 Weeks in Karlsruhe, Baden-Württemberg, Germany

Now
50 °F

Passing clouds.


Feels Like: 47 °F
Forecast: 40 / 65 °F
Wind: 8 mph from Northeast

Location: Karlsruhe - Baden Wurttemberg

Current Time: May 4, 2016 at 11:02:14 AM

Latest Report: May 4, 2016 at 9:50 AM


Visibility: N/A

Pressure: 30.36 "Hg

Humidity: 76%

Dew Point: 43 °F

Location of KarlsruheLocation

Historic Weather in Karlsruhe — Graph

°F

Karlsruhe Temperature Yesterday

Maximum temperature yesterday: 57 °F (at 10:20 AM)
Minimum temperature yesterday: 45 °F (at 11:20 PM)
Average temperature yesterday: 51 °F

High & Low Weather Summary for the Past Weeks

 TemperatureHumidityPressure
High70 °F (Apr 21, 3:50 PM)100% (Apr 20, 4:50 AM)30.39 "Hg (Apr 20, 4:50 AM)
Low30 °F (Apr 29, 5:20 AM)33% (Apr 21, 4:20 PM)29.59 "Hg (Apr 26, 5:50 AM)
Average49 °F73%30.04 "Hg
* Reported Apr 19 9:50 AM — May 4 9:50 AM, Karlsruhe, Weather by CustomWeather, © 2016

Note: Actual official high and low records may vary slightly from our data, if they occured in-between our weather recording intervals... More about our weather records

Advertising

Karlsruhe Weather History for the Previous 24 Hours

Scroll right to see more
 ConditionsComfort  
Time TempWeatherWind HumidityBarometerVisibility
9:50 AM
Wed, May 4
50 °FPassing clouds.8 mph76%30.36 "HgN/A
9:20 AM48 °FSunny.9 mph87%30.36 "Hg10 mi
8:50 AM45 °FLight fog.3 mph100%30.36 "Hg5 mi
8:20 AM43 °FClear.5 mphN/A30.36 "Hg4 mi
7:50 AM41 °FLight fog.3 mphN/A30.36 "HgN/A
7:11 AM39 °FLight fog.No windN/A30.36 "Hg2 mi
6:20 AM37 °FFog.No wind100%30.36 "Hg0 mi
5:50 AM37 °FFog.No wind100%30.36 "Hg0 mi
5:20 AM36 °FFog.No windN/AN/A0 mi
4:50 AM36 °FFog.1 mph100%30.36 "Hg0 mi
11:20 PM
Tue, May 3
45 °FClear.5 mph100%30.33 "Hg10 mi
10:50 PM46 °FClear.3 mph93%30.30 "Hg10 mi
10:20 PM48 °FClear.6 mph87%30.30 "Hg10 mi
9:50 PM46 °FClear.5 mph93%30.30 "Hg10 mi
9:20 PM48 °FSunny.3 mph94%30.27 "Hg10 mi
8:50 PM50 °FSunny.3 mph88%30.27 "Hg10 mi
8:20 PM50 °FSunny.5 mph88%30.24 "Hg10 mi
7:50 PM52 °FPassing clouds.5 mph82%30.24 "HgN/A
7:20 PM52 °FPassing clouds.5 mph88%30.24 "HgN/A
6:50 PM50 °FScattered showers. Broken clouds.6 mph88%30.21 "HgN/A
6:20 PM52 °FRain showers. Broken clouds.3 mph82%30.24 "Hg4 mi
5:50 PM54 °FScattered showers. Broken clouds.3 mph77%30.21 "HgN/A
5:20 PM50 °FScattered showers. Broken clouds.5 mph88%30.21 "HgN/A
4:50 PM52 °FSprinkles. Broken clouds.7 mph82%30.21 "HgN/A
3:57 PM52 °FRain showers. Broken clouds.5 mph88%30.21 "Hg3 mi
3:50 PM52 °FBroken clouds.6 mph82%30.21 "HgN/A
3:20 PM52 °FPartly sunny.6 mph82%30.21 "HgN/A
2:50 PM50 °FScattered showers. Partly sunny.8 mph88%30.21 "Hg6 mi
2:20 PM50 °FLight rain. Broken clouds.5 mph94%30.18 "Hg6 mi
1:50 PM50 °FRain. Broken clouds.5 mph94%30.18 "Hg4 mi
1:20 PM50 °FRain. Broken clouds.3 mph94%30.18 "Hg4 mi
12:50 PM52 °FRain. Broken clouds.5 mph94%30.18 "Hg4 mi
12:20 PM50 °FRain. Broken clouds.7 mph100%30.18 "Hg3 mi
11:54 AM50 °FRain. Broken clouds.6 mph100%30.18 "Hg3 mi
11:50 AM52 °FRain. Partly sunny.7 mph94%30.18 "Hg5 mi
Weather by CustomWeather, © 2016

See weather overviewHow to use our weather pages